Regional Weather Roundup
Issued by NWS

Home | Current Version | Previous Version | Graphics & Text | Print | Product List | Glossary On
Versions: 1 2 3 4 5 6 7 8 9 10 11 12 13 14 15 16 17 18 19 20 21 22 23 24 25 26 27 28 29 30 31 32 33 34 35 36 37 38 39 40 41 42 43 44 45 46 47 48 49 50
000
ASUS44 KMEG 300510
RWRTN
TENNESSEE HOURLY STATE WEATHER ROUNDUP
NATIONAL WEATHER SERVICE MEMPHIS TN
1200 AM CDT TUE SEP 30 2014

TNZ002-004-019-021-049-052-054-088>092-300600-
WEST TENNESSEE

CITY           SKY/WX    TMP DP  RH WIND       PRES   REMARKS
MEMPHIS INTL   CLEAR     69  58  67 CALM      29.94F
NWS MEMPHIS      N/A     64 N/A N/A MISG        N/A
JACKSON        CLEAR     63  61  93 CALM      29.95F
DYERSBURG      CLEAR     63  50  63 CALM      29.96S
UNION CITY     CLEAR     59  57  94 CALM      29.95S
PARIS          CLEAR     55  54  94 CALM      29.96F
HUNTINGDON     MOCLDY    61  59  93 CALM      29.96S
LEXINGTON      CLEAR     63  61  94 CALM      29.94F
SAVANNAH       CLEAR     61  61 100 CALM      29.96S
$$

TNZ008-025-027-028-033-062-065-066-300600-
NORTH MIDDLE TENNESSEE

CITY           SKY/WX    TMP DP  RH WIND       PRES   REMARKS
NASHVILLE      PTCLDY    67  61  81 CALM      29.96S
DICKSON        PTCLDY    64  59  82 CALM      29.96F
PORTLAND       CLEAR     61  59  94 CALM      29.96S
CLARKSVILLE    CLEAR     62  60  93 W3        29.95F
SMYRNA         CLEAR     62  60  93 CALM      29.96S
MURFREESBORO   CLEAR     65  60  83 CALM      29.95S
COOKEVILLE     CLEAR     57  57 100 CALM      29.96F
LIVINGSTON     CLEAR     63  57  80 CALM      29.98F
GALLATIN       CLEAR     62  61  97 CALM      29.97S
CROSSVILLE     CLEAR     62  57  83 W3        30.00F
$$

TNZ061-075-076-078-094-096-097-300600-
SOUTH MIDDLE TENNESSEE

CITY           SKY/WX    TMP DP  RH WIND       PRES   REMARKS
LEWISBURG      CLEAR     59  57  92 CALM      29.96S
FAYETTEVILLE   CLEAR     61  57  88 MISG      29.97S
TULLAHOMA      CLEAR     59  55  88 CALM      29.98S
WINCHESTER     CLEAR     59  57  94 CALM      29.97S
MCMINNVILLE    CLEAR     59  59 100 CALM      29.97S
COLUMBIA       CLEAR    N/A N/A N/A CALM      29.95S
SHELBYVILLE    CLEAR     63  61  94 CALM      29.97S
$$

TNZ017-018-042-046-047-300600-
NORTHEAST TENNESSEE

CITY           SKY/WX    TMP DP  RH WIND       PRES   REMARKS
TRI CITIES     MOCLDY    59  56  89 CALM      29.99F
ELIZABETHTON   CLEAR     55  55 100 CALM      30.00F
$$

TNZ012-013-036-069-073-074-300600-
CENTRAL EAST TENNESSEE

CITY           SKY/WX    TMP DP  RH WIND       PRES   REMARKS
KNOXVILLE      CLEAR     64  60  87 CALM      29.95F
OAK RIDGE      CLEAR     63  61  93 CALM      29.98S
GATLINBURG     CLEAR     61  57  88 CALM      29.96F
$$

TNZ083-085-099-300600-
SOUTHEAST TENNESSEE

CITY           SKY/WX    TMP DP  RH WIND       PRES   REMARKS
CHATTANOOGA    CLEAR     66  63  90 CALM      29.97S
$$

SKY/WX REPORTED AS FAIR MEANS FEW OR NO CLOUDS BELOW
12 THOUSAND FEET.




USA.gov is the U.S. government's official web portal to all federal, state and local government web resources and services.